Hourly Weather Holupovka

Today, 16 April, Friday

Time Temperature Precipitation Wind Pressure Humidity
00:00 +9°C° 0.7 mm 3 mps 742 mmHg 93%
01:00 +9°C° 0.7 mm 3 mps 742 mmHg 93%
02:00 +9°C° 0 mm 3 mps 742 mmHg 94%
03:00 +8°C° 0.1 mm 3 mps 742 mmHg 94%
04:00 +8°C° 0.1 mm 3 mps 742 mmHg 95%
05:00 +8°C° 0.1 mm 3 mps 743 mmHg 95%
06:00 +8°C° 0 mm 4 mps 743 mmHg 90%
07:00 +10°C° 0 mm 4 mps 743 mmHg 85%
08:00 +10°C° 0 mm 5 mps 743 mmHg 79%
09:00 +12°C° 0.1 mm 5 mps 743 mmHg 72%
10:00 +13°C° 0.1 mm 6 mps 744 mmHg 64%
11:00 +14°C° 0.1 mm 6 mps 744 mmHg 57%
12:00 +14°C° 0 mm 6 mps 744 mmHg 55%
13:00 +14°C° 0 mm 6 mps 744 mmHg 53%
14:00 +15°C° 0 mm 5 mps 744 mmHg 51%
15:00 +14°C° 0.1 mm 5 mps 744 mmHg 55%
16:00 +13°C° 0.1 mm 4 mps 744 mmHg 59%
17:00 +13°C° 0.1 mm 3 mps 744 mmHg 63%
18:00 +12°C° 0 mm 3 mps 744 mmHg 69%
19:00 +11°C° 0 mm 3 mps 744 mmHg 75%
20:00 +9°C° 0 mm 2 mps 745 mmHg 81%
21:00 +9°C° 0.1 mm 2 mps 745 mmHg 83%
22:00 +9°C° 0.1 mm 2 mps 745 mmHg 85%
23:00 +9°C° 0.1 mm 2 mps 745 mmHg 87%

Tomorrow, 17 April, Saturday

Time Temperature Precipitation Wind Pressure Humidity
00:00 +8°C° 0 mm 2 mps 745 mmHg 89%
01:00 +7°C° 0 mm 2 mps 745 mmHg 91%
02:00 +7°C° 0 mm 2 mps 745 mmHg 93%
03:00 +6°C° 0 mm 2 mps 746 mmHg 92%
04:00 +6°C° 0 mm 2 mps 746 mmHg 92%
05:00 +5°C° 0 mm 2 mps 746 mmHg 92%
06:00 +7°C° 0 mm 2 mps 746 mmHg 85%
07:00 +8°C° 0 mm 2 mps 747 mmHg 78%
08:00 +10°C° 0 mm 2 mps 747 mmHg 71%
09:00 +12°C° 0 mm 2 mps 747 mmHg 66%
10:00 +13°C° 0 mm 2 mps 747 mmHg 61%
11:00 +14°C° 0 mm 2 mps 747 mmHg 55%
12:00 +13°C° 0.7 mm 3 mps 746 mmHg 64%
13:00 +12°C° 0.7 mm 4 mps 746 mmHg 72%
14:00 +10°C° 0.7 mm 5 mps 746 mmHg 80%
15:00 +10°C° 1.8 mm 5 mps 745 mmHg 83%
16:00 +10°C° 1.8 mm 4 mps 745 mmHg 87%
17:00 +10°C° 1.8 mm 4 mps 745 mmHg 91%
18:00 +8°C° 0.2 mm 4 mps 745 mmHg 90%
19:00 +8°C° 0.2 mm 4 mps 745 mmHg 90%
20:00 +8°C° 0.2 mm 4 mps 745 mmHg 89%
21:00 +7°C° 1 mm 4 mps 745 mmHg 90%
22:00 +6°C° 1 mm 4 mps 745 mmHg 91%
23:00 +6°C° 1 mm 5 mps 745 mmHg 92%

Day after tomorrow, 18 April, Sunday

Time Temperature Precipitation Wind Pressure Humidity
00:00 +5°C° 0.1 mm 4 mps 745 mmHg 91%
01:00 +5°C° 0.1 mm 4 mps 745 mmHg 91%
02:00 +5°C° 0.1 mm 4 mps 746 mmHg 90%
03:00 +5°C° 0 mm 4 mps 746 mmHg 90%
04:00 +4°C° 0 mm 4 mps 746 mmHg 91%
05:00 +4°C° 0 mm 4 mps 746 mmHg 91%
06:00 +5°C° 0 mm 4 mps 746 mmHg 87%
07:00 +6°C° 0 mm 4 mps 747 mmHg 84%
08:00 +6°C° 0 mm 4 mps 747 mmHg 80%
09:00 +7°C° 0.2 mm 4 mps 747 mmHg 78%
10:00 +7°C° 0.2 mm 5 mps 747 mmHg 75%
11:00 +8°C° 0.2 mm 5 mps 747 mmHg 73%
12:00 +8°C° 0.2 mm 5 mps 747 mmHg 69%
13:00 +9°C° 0.2 mm 5 mps 747 mmHg 65%
14:00 +9°C° 0.2 mm 5 mps 746 mmHg 62%
15:00 +8°C° 0.4 mm 5 mps 747 mmHg 68%
16:00 +8°C° 0.4 mm 4 mps 747 mmHg 75%
17:00 +7°C° 0.4 mm 4 mps 747 mmHg 81%
18:00 +6°C° 0.4 mm 4 mps 747 mmHg 82%
19:00 +6°C° 0.4 mm 4 mps 747 mmHg 84%
20:00 +6°C° 0.4 mm 4 mps 747 mmHg 85%
21:00 +5°C° 0.1 mm 4 mps 747 mmHg 87%
22:00 +5°C° 0.1 mm 5 mps 747 mmHg 89%
23:00 +5°C° 0.1 mm 5 mps 747 mmHg 91%

19 April, Monday

Time Temperature Precipitation Wind Pressure Humidity
00:00 +4°C° 0.5 mm 6 mps 746 mmHg 91%
01:00 +4°C° 0.5 mm 6 mps 746 mmHg 91%
02:00 +4°C° 0.5 mm 6 mps 746 mmHg 91%
03:00 +4°C° 0.5 mm 7 mps 746 mmHg 92%
04:00 +4°C° 0.5 mm 7 mps 746 mmHg 92%
05:00 +4°C° 0.5 mm 7 mps 746 mmHg 92%
06:00 +4°C° 1.1 mm 7 mps 746 mmHg 92%
07:00 +4°C° 1.1 mm 7 mps 746 mmHg 92%
08:00 +4°C° 1.1 mm 6 mps 746 mmHg 92%
09:00 +4°C° 1.5 mm 6 mps 746 mmHg 92%
10:00 +5°C° 1.5 mm 6 mps 745 mmHg 91%
11:00 +5°C° 1.5 mm 6 mps 745 mmHg 91%
12:00 +5°C° 2 mm 6 mps 745 mmHg 90%
13:00 +7°C° 2 mm 5 mps 745 mmHg 89%
14:00 +7°C° 2 mm 5 mps 745 mmHg 89%
15:00 +7°C° 1.6 mm 4 mps 745 mmHg 89%
16:00 +7°C° 1.6 mm 4 mps 745 mmHg 90%
17:00 +7°C° 1.6 mm 4 mps 745 mmHg 90%
18:00 +7°C° 1.7 mm 4 mps 744 mmHg 90%
19:00 +7°C° 1.7 mm 4 mps 744 mmHg 89%
20:00 +7°C° 1.7 mm 5 mps 744 mmHg 89%
21:00 +7°C° 0.2 mm 5 mps 744 mmHg 89%
22:00 +6°C° 0.2 mm 5 mps 744 mmHg 90%
23:00 +5°C° 0.2 mm 6 mps 743 mmHg 90%

20 April, Tuesday

Time Temperature Precipitation Wind Pressure Humidity
00:00 +6°C° 0.1 mm 5 mps 743 mmHg 91%
01:00 +6°C° 0.1 mm 5 mps 742 mmHg 92%
02:00 +6°C° 0.1 mm 5 mps 742 mmHg 93%
03:00 +6°C° 0.6 mm 5 mps 741 mmHg 93%
04:00 +5°C° 0.6 mm 6 mps 740 mmHg 93%
05:00 +5°C° 0.6 mm 6 mps 739 mmHg 93%
06:00 +5°C° 0.4 mm 6 mps 738 mmHg 92%
07:00 +5°C° 0.4 mm 7 mps 738 mmHg 92%
08:00 +4°C° 0.4 mm 7 mps 737 mmHg 91%
09:00 +4°C° 1.6 mm 7 mps 736 mmHg 91%
10:00 +4°C° 1.6 mm 7 mps 735 mmHg 91%
11:00 +4°C° 1.6 mm 8 mps 734 mmHg 91%
12:00 +4°C° 1.2 mm 8 mps 733 mmHg 92%
13:00 +4°C° 1.2 mm 8 mps 732 mmHg 92%
14:00 +4°C° 1.2 mm 8 mps 730 mmHg 92%
15:00 +5°C° 1.7 mm 7 mps 730 mmHg 92%
16:00 +5°C° 1.7 mm 7 mps 729 mmHg 92%
17:00 +6°C° 1.7 mm 7 mps 728 mmHg 92%
18:00 +7°C° 0.3 mm 6 mps 728 mmHg 93%
19:00 +7°C° 0.3 mm 6 mps 728 mmHg 94%
20:00 +7°C° 0.3 mm 5 mps 728 mmHg 96%
21:00 +7°C° 0 mm 5 mps 728 mmHg 94%
22:00 +7°C° 0 mm 6 mps 728 mmHg 93%
23:00 +7°C° 0 mm 6 mps 728 mmHg 91%

21 April, Wednesday

Time Temperature Precipitation Wind Pressure Humidity
00:00 +5°C° 0.1 mm 6 mps 728 mmHg 92%
01:00 +3°C° 0.1 mm 6 mps 728 mmHg 94%
02:00 +2°C° 0.1 mm 6 mps 729 mmHg 95%
03:00 +1°C° 0.1 mm 6 mps 729 mmHg 95%
04:00 0°C° 0.1 mm 7 mps 730 mmHg 96%
05:00 0°C° 0.1 mm 7 mps 730 mmHg 96%
06:00 +2°C° 0.1 mm 7 mps 731 mmHg 95%
07:00 +2°C° 0.1 mm 7 mps 731 mmHg 93%
08:00 +3°C° 0.1 mm 7 mps 732 mmHg 92%
09:00 +3°C° 0.3 mm 7 mps 733 mmHg 93%
10:00 +3°C° 0.3 mm 7 mps 733 mmHg 94%
11:00 +2°C° 0.3 mm 8 mps 734 mmHg 95%
12:00 +3°C° 0.3 mm 7 mps 734 mmHg 95%
13:00 +3°C° 0.3 mm 7 mps 735 mmHg 96%
14:00 +3°C° 0.3 mm 7 mps 736 mmHg 96%
15:00 +3°C° 0.3 mm 7 mps 736 mmHg 96%
16:00 +3°C° 0.3 mm 7 mps 737 mmHg 96%
17:00 +3°C° 0.3 mm 7 mps 738 mmHg 96%
18:00 +3°C° 0.3 mm 7 mps 738 mmHg 95%
19:00 +3°C° 0.3 mm 7 mps 739 mmHg 95%
20:00 +3°C° 0.3 mm 7 mps 740 mmHg 94%
21:00 +4°C° 0 mm 6 mps 740 mmHg 92%
22:00 +4°C° 0 mm 6 mps 741 mmHg 90%
23:00 +5°C° 0 mm 5 mps 741 mmHg 88%
Show more